DW8340 Weather Reports


time (UTC)temp
F
wind
direction
speed
knots
gust
knots
rain 1hr
in
rain 24hr
in
rain mn
in
humidity
%
barometer
mb
20260505212041 85 196 2.6 7.8 0.00 0.00 0.00 27 1007.6
20260505211543 85 261 4.3 7.8 0.00 0.00 0.00 26 1007.4
20260505211041 85 300 2.6 7.0 0.00 0.00 0.00 27 1007.3
20260505210540 85 267 1.7 7.0 0.00 0.00 0.00 27 1007.4
20260505210050 85 183 2.6 7.0 0.00 0.00 0.00 28 1007.5
20260505205543 85 211 1.7 18.2 0.00 0.00 0.00 28 1007.4
20260505205041 85 202 1.7 18.2 0.00 0.00 0.00 28 1007.5
20260505204552 85 265 2.6 18.2 0.00 0.00 0.00 28 1007.3
20260505204040 85 218 1.7 13.9 0.00 0.00 0.00 29 1007.5
20260505203541 85 259 3.5 13.9 0.00 0.00 0.00 28 1007.5
20260505203056 85 307 2.6 8.7 0.00 0.00 0.00 28 1007.6
20260505202540 84 352 3.5 10.4 0.00 0.00 0.00 28 1007.6
20260505202040 84 227 2.6 13.0 0.00 0.00 0.00 30 1007.6
20260505201549 84 285 2.6 13.0 0.00 0.00 0.00 29 1007.5
20260505201040 84 204 2.6 8.7 0.00 0.00 0.00 29 1007.6
20260505200541 83 261 1.7 5.2 0.00 0.00 0.00 30 1007.7
20260505200047 83 192 0.9 6.1 0.00 0.00 0.00 36 1007.8
20260505195541 83 142 0.9 6.1 0.00 0.00 0.00 39 1007.9
20260505195042 83 79 2.6 6.1 0.00 0.00 0.00 37 1007.9
20260505194603 83 284 1.7 4.3 0.00 0.00 0.00 39 1008.1
20260505194040 83 273 0.9 6.1 0.00 0.00 0.00 39 1008.0
20260505193541 84 341 0.9 8.7 0.00 0.00 0.00 38 1008.2
20260505193048 84 26 1.7 8.7 0.00 0.00 0.00 39 1008.1
20260505192540 84 171 0.9 3.5 0.00 0.00 0.00 40 1008.2
20260505192040 84 173 0.9 7.0 0.00 0.00 0.00 40 1008.5
20260505191600 84 257 1.7 10.4 0.00 0.00 0.00 39 1008.4
20260505191040 84 229 0.9 10.4 0.00 0.00 0.00 40 1008.5
20260505190541 84 274 1.7 5.2 0.00 0.00 0.00 34 1008.3
20260505190047 84 92 0.0 5.2 0.00 0.00 0.00 40 1008.5
20260505185540 84 205 0.9 5.2 0.00 0.00 0.00 40 1008.8
20260505185040 84 99 1.7 7.0 0.00 0.00 0.00 39 1008.8
20260505184544 85 207 0.0 7.0 0.00 0.00 0.00 39 1009.1
20260505184040 85 152 1.7 7.8 0.00 0.00 0.00 37 1009.2
20260505183539 86 54 1.7 8.7 0.00 0.00 0.00 36 1009.2
20260505183053 86 213 0.9 8.7 0.00 0.00 0.00 36 1009.1
20260505182540 86 345 0.9 8.7 0.00 0.00 0.00 37 1009.0
20260505182042 87 57 1.7 7.8 0.00 0.00 0.00 36 1009.1
20260505181548 87 69 1.7 7.0 0.00 0.00 0.00 35 1009.1
20260505181040 87 0 1.7 7.0 0.00 0.00 0.00 34 1009.2
20260505180540 88 80 0.9 5.2 0.00 0.00 0.00 34 1009.3
20260505180054 87 286 1.7 6.1 0.00 0.00 0.00 33 1009.2
20260505175543 87 214 0.9 7.8 0.00 0.00 0.00 34 1009.1
20260505175040 87 57 0.9 7.8 0.00 0.00 0.00 34 1009.3
20260505174549 87 248 0.9 7.0 0.00 0.00 0.00 34 1009.3
20260505174040 87 0 1.7 7.0 0.00 0.00 0.00 34 1009.4
20260505173540 88 244 0.9 4.3 0.00 0.00 0.00 34 1009.4
20260505173111 87 254 1.7 7.0 0.00 0.00 0.00 34 1009.5
20260505172539 88 210 1.7 7.8 0.00 0.00 0.00 33 1009.7
20260505172039 88 287 0.9 7.8 0.00 0.00 0.00 33 1009.5
20260505171613 88 200 0.9 3.5 0.00 0.00 0.00 34 1009.6
20260505171040 87 0 0.9 4.3 0.00 0.00 0.00 34 1009.6
20260505170540 87 0 0.9 4.3 0.00 0.00 0.00 35 1009.7
20260505170051 87 19 0.9 3.5 0.00 0.00 0.00 34 1009.6
20260505165540 87 215 0.9 2.6 0.00 0.00 0.00 35 1009.7
20260505165039 86 244 0.0 7.0 0.00 0.00 0.00 35 1009.8
20260505164555 86 0 0.9 7.0 0.00 0.00 0.00 35 1009.9
20260505164040 86 240 0.9 3.5 0.00 0.00 0.00 36 1010.0
20260505163540 86 265 0.9 6.1 0.00 0.00 0.00 35 1010.0
20260505163046 86 255 0.0 6.1 0.00 0.00 0.00 36 1010.1
20260505162540 85 0 1.7 6.1 0.00 0.00 0.00 36 1010.1
20260505162041 86 209 0.9 6.1 0.00 0.00 0.00 36 1010.3
20260505161553 85 216 0.9 4.3 0.00 0.00 0.00 36 1010.4
20260505161040 85 306 0.9 4.3 0.00 0.00 0.00 37 1010.6
20260505160547 85 199 0.9 4.3 0.00 0.00 0.00 36 1010.4
20260505153043 83 259 0.9 3.5 0.00 0.00 0.00 39 1011.0
20260505152540 83 211 0.9 3.5 0.00 0.00 0.00 40 1010.9
20260505152040 82 286 0.9 4.3 0.00 0.00 0.00 39 1011.0
20260505151549 82 197 0.9 4.3 0.00 0.00 0.00 40 1010.8
20260505151043 82 187 0.0 4.3 0.00 0.00 0.00 40 1011.0
20260505150540 81 0 0.9 3.5 0.00 0.00 0.00 40 1010.9
20260505150106 81 240 0.0 4.3 0.00 0.00 0.00 41 1011.1
20260505140541 77 317 0.9 3.5 0.00 0.00 0.00 46 1011.4
20260505125039 68 294 0.0 3.5 0.00 0.00 0.00 61 1011.1
20260505124555 67 76 0.0 3.5 0.00 0.00 0.00 63 1011.1
20260505124040 66 190 0.0 1.7 0.00 0.00 0.00 65 1011.1
20260505123539 65 201 0.0 1.7 0.00 0.00 0.00 67 1011.0
20260505123058 64 0 0.0 2.6 0.00 0.00 0.00 68 1011.3
20260505122540 63 0 0.0 2.6 0.00 0.00 0.00 70 1011.2
20260505122040 63 183 0.0 1.7 0.00 0.00 0.00 71 1011.3
20260505121622 62 236 0.0 1.7 0.00 0.00 0.00 73 1011.3
20260505121040 61 0 0.0 1.7 0.00 0.00 0.00 73 1011.3
20260505120540 61 0 0.0 1.7 0.00 0.00 0.00 73 1011.3
20260505120054 61 0 0.0 1.7 0.00 0.00 0.00 73 1011.3
20260505115540 60 221 0.0 2.6 0.00 0.00 0.00 73 1011.2
20260505115040 60 242 0.9 2.6 0.00 0.00 0.00 73 1011.3
20260505114552 60 0 0.0 2.6 0.00 0.00 0.00 73 1010.9
20260505114056 60 0 0.0 1.7 0.00 0.00 0.00 74 1011.4
20260505113541 60 0 0.0 1.7 0.00 0.00 0.00 74 1011.3
20260505113056 59 0 0.0 2.6 0.00 0.00 0.00 75 1011.1
20260505112539 59 0 0.0 2.6 0.00 0.00 0.00 75 1011.1
20260505112039 59 0 0.0 1.7 0.00 0.00 0.00 75 1010.8
20260505111554 59 0 0.0 1.7 0.00 0.00 0.00 75 1011.3
20260505111041 58 294 0.0 1.7 0.00 0.00 0.00 75 1011.4
20260505110539 58 0 0.0 1.7 0.00 0.00 0.00 75 1011.4
20260505102039 57 0 0.0 1.7 0.00 0.00 0.00 74 1011.1
20260505101544 57 184 0.0 0.9 0.00 0.00 0.00 74 1011.2
20260505101040 57 0 0.0 0.9 0.00 0.00 0.00 74 1011.0
20260505100540 57 196 0.0 0.9 0.00 0.00 0.00 74 1010.9
20260505100118 57 0 0.0 0.9 0.00 0.00 0.00 74 1010.7
20260505095544 57 0 0.0 0.9 0.00 0.00 0.00 74 1010.6
20260505095044 57 155 0.0 0.9 0.00 0.00 0.00 74 1010.7
20260505094545 57 0 0.0 0.9 0.00 0.00 0.00 74 1010.6
20260505094039 57 0 0.0 0.9 0.00 0.00 0.00 74 1010.4
20260505093541 57 0 0.0 0.9 0.00 0.00 0.00 73 1010.4
20260505093042 57 0 0.0 0.9 0.00 0.00 0.00 73 1010.5
20260505092541 57 0 0.0 0.0 0.00 0.00 0.00 73 1010.5
20260505092039 57 0 0.0 0.9 0.00 0.00 0.00 73 1010.4
20260505091608 57 0 0.0 1.7 0.00 0.00 0.00 73 1010.5
20260505091038 57 0 0.0 1.7 0.00 0.00 0.00 73 1010.3
20260505090540 57 0 0.0 2.6 0.00 0.00 0.00 72 1010.4
20260505090058 57 0 0.0 2.6 0.00 0.00 0.00 72 1010.4
20260505085540 57 0 0.0 0.0 0.00 0.00 0.00 71 1010.4
20260505085040 57 0 0.0 0.0 0.00 0.00 0.00 71 1010.5
20260505084547 57 0 0.0 0.0 0.00 0.00 0.00 71 1010.4
20260505084044 57 0 0.0 0.0 0.00 0.00 0.00 71 1010.4
20260505083539 57 0 0.0 0.0 0.00 0.00 0.00 71 1010.4
20260505083050 57 0 0.0 0.0 0.00 0.00 0.00 71 1010.5
20260505082539 57 0 0.0 0.0 0.00 0.00 0.00 71 1010.3
20260505082039 57 0 0.0 0.0 0.00 0.00 0.00 70 1010.4
20260505081548 57 0 0.0 0.0 0.00 0.00 0.00 70 1010.4
20260505081042 58 0 0.0 0.0 0.00 0.00 0.00 69 1010.5
20260505080540 58 0 0.0 0.0 0.00 0.00 0.00 67 1010.5
20260505080053 58 0 0.0 0.0 0.00 0.00 0.00 68 1010.6
20260505075539 58 0 0.0 0.0 0.00 0.00 0.00 68 1010.5
20260505075040 58 0 0.0 0.0 0.00 0.00 0.00 67 1010.4
20260505074546 58 0 0.0 0.0 0.00 0.00 0.00 67 1010.4
20260505074039 58 0 0.0 0.0 0.00 0.00 0.00 67 1010.5
20260505073539 58 0 0.0 0.0 0.00 0.00 0.00 66 1010.4
20260505073059 58 0 0.0 0.0 0.00 0.00 0.00 65 1010.5
20260505072543 58 0 0.0 0.0 0.00 0.00 0.00 65 1010.4
20260505072035 59 0 0.0 0.0 0.00 0.00 0.00 66 1010.6
20260505071549 59 0 0.0 0.0 0.00 0.00 0.00 65 1010.5
20260505071039 59 0 0.0 0.0 0.00 0.00 0.00 65 1010.4
20260505070541 59 0 0.0 0.0 0.00 0.00 0.00 64 1010.4
20260505070043 59 0 0.0 0.0 0.00 0.00 0.00 64 1010.4
20260505065541 59 0 0.0 0.9 0.00 0.00 0.00 64 1010.3
20260505065039 59 0 0.0 0.9 0.00 0.00 0.00 64 1010.3
20260505064552 60 0 0.0 0.9 0.00 0.00 0.00 64 1010.4
20260505064040 60 0 0.0 0.0 0.00 0.00 0.00 63 1010.5
20260505063539 60 0 0.0 0.0 0.00 0.00 0.00 62 1010.5
20260505063052 60 0 0.0 0.9 0.00 0.00 0.00 62 1010.3
20260505062539 60 0 0.0 0.9 0.00 0.00 0.00 62 1010.5
20260505062038 60 300 0.0 0.9 0.00 0.00 0.00 61 1010.5
20260505061548 60 0 0.0 0.9 0.00 0.00 0.00 61 1010.6
20260505061039 60 0 0.0 0.9 0.00 0.00 0.00 61 1010.6
20260505060544 61 299 0.0 0.9 0.00 0.00 0.00 60 1010.7
20260505060049 61 0 0.0 0.9 0.00 0.00 0.00 61 1010.6
20260505055539 61 0 0.0 0.9 0.00 0.00 0.00 60 1010.7
20260505055036 61 0 0.0 0.9 0.00 0.00 0.00 61 1010.6
20260505054615 61 0 0.0 0.9 0.00 0.00 0.00 60 1010.7
20260505054040 61 300 0.0 0.9 0.00 0.00 0.00 60 1010.7
20260505053535 61 0 0.0 0.9 0.00 0.00 0.00 60 1010.7
20260505053048 61 0 0.0 1.7 0.00 0.00 0.00 59 1010.8
20260505052542 61 0 0.0 1.7 0.00 0.00 0.00 59 1010.8
20260505052040 61 0 0.0 1.7 0.00 0.00 0.00 59 1010.8
20260505051547 61 0 0.0 1.7 0.00 0.00 0.00 58 1010.8
20260505051041 61 0 0.0 1.7 0.00 0.00 0.00 58 1010.9
20260505050540 62 191 0.0 1.7 0.00 0.00 0.00 58 1011.0
20260505041600 62 0 0.0 1.7 0.00 0.00 0.00 55 1011.1
20260505041041 63 0 0.0 1.7 0.00 0.00 0.00 55 1011.1
20260505040542 63 0 0.0 2.6 0.00 0.00 0.00 54 1011.2
20260505040051 63 0 0.0 2.6 0.00 0.00 0.00 54 1011.2
20260505035540 63 0 0.0 0.9 0.00 0.00 0.00 54 1011.1
20260505035040 63 0 0.0 1.7 0.00 0.00 0.00 53 1011.1
20260505034550 63 0 0.0 1.7 0.00 0.00 0.00 53 1011.1
20260505034040 63 0 0.0 1.7 0.00 0.00 0.00 53 1011.1
20260505033541 63 0 0.0 1.7 0.00 0.00 0.00 52 1011.1
20260505033048 63 0 0.0 1.7 0.00 0.00 0.00 52 1011.1
20260505032541 63 0 0.0 2.6 0.00 0.00 0.00 52 1011.2
20260505032038 63 0 0.0 2.6 0.00 0.00 0.00 52 1011.2
20260505031545 64 0 0.0 2.6 0.00 0.00 0.00 52 1011.0
20260505031038 64 0 0.0 1.7 0.00 0.00 0.00 52 1011.3
20260505030542 64 0 0.0 0.9 0.00 0.00 0.00 52 1011.2
20260505030104 64 0 0.0 1.7 0.00 0.00 0.00 52 1011.2
20260505025539 64 0 0.0 1.7 0.00 0.00 0.00 51 1011.1
20260505025041 64 0 0.0 1.7 0.00 0.00 0.00 51 1011.2
20260505024556 64 0 0.0 3.5 0.00 0.00 0.00 51 1011.2
20260505024039 64 203 0.0 3.5 0.00 0.00 0.00 51 1011.2
20260505023539 64 204 0.9 3.5 0.00 0.00 0.00 51 1011.2
20260505023053 64 0 0.0 1.7 0.00 0.00 0.00 51 1011.3
20260505022539 64 122 0.0 1.7 0.00 0.00 0.00 51 1011.3
20260505022039 64 0 0.0 3.5 0.00 0.00 0.00 51 1011.4
20260505021556 64 79 0.0 3.5 0.00 0.00 0.00 51 1011.3
20260505021039 64 215 0.0 3.5 0.00 0.00 0.00 51 1011.3
20260505020544 64 0 0.0 2.6 0.00 0.00 0.00 52 1011.3
20260505015539 64 0 0.0 2.6 0.00 0.00 0.00 52 1011.3
20260505015042 64 0 0.0 2.6 0.00 0.00 0.00 52 1011.2
20260505014553 64 0 0.0 2.6 0.00 0.00 0.00 52 1011.3
20260505014039 63 83 0.0 2.6 0.00 0.00 0.00 53 1011.2
20260505013543 63 266 0.0 1.7 0.00 0.00 0.00 53 1011.1
20260505013049 63 0 0.0 1.7 0.00 0.00 0.00 53 1011.1
20260505012539 63 360 0.0 1.7 0.00 0.00 0.00 53 1011.0
20260505012039 64 0 0.0 0.9 0.00 0.00 0.00 53 1011.0
20260505011552 64 0 0.0 0.9 0.00 0.00 0.00 54 1010.9
20260505011038 64 0 0.0 0.9 0.00 0.00 0.00 54 1010.8
20260505010544 64 0 0.0 0.9 0.00 0.00 0.00 54 1010.7
20260505010106 64 0 0.0 0.9 0.00 0.00 0.00 53 1010.7
20260505005539 64 0 0.0 0.9 0.00 0.00 0.00 54 1010.5
20260505005042 64 0 0.0 0.9 0.00 0.00 0.00 53 1010.5
20260505004549 65 0 0.0 0.9 0.00 0.00 0.00 53 1010.5
20260505004038 65 0 0.0 0.9 0.00 0.00 0.00 53 1010.3
20260505003539 65 0 0.0 1.7 0.00 0.00 0.00 54 1010.2
20260505003048 65 0 0.0 1.7 0.00 0.00 0.00 54 1010.2
20260505002540 65 90 0.0 1.7 0.00 0.00 0.00 54 1010.2
20260505002041 65 0 0.0 1.7 0.00 0.00 0.00 55 1010.1
20260505001543 66 89 0.0 2.6 0.00 0.00 0.00 54 1010.1
20260505001042 66 86 0.0 2.6 0.00 0.00 0.00 53 1009.9
20260505000540 67 69 0.0 2.6 0.00 0.00 0.00 53 1009.8
20260505000051 67 74 0.0 3.5 0.00 0.00 0.00 52 1009.7
20260504235543 68 70 0.9 3.5 0.00 0.00 0.00 51 1009.7
20260504235041 69 65 0.9 2.6 0.00 0.00 0.00 49 1009.6
20260504234548 70 76 0.0 1.7 0.00 0.00 0.00 47 1009.6
20260504234040 70 76 0.0 1.7 0.00 0.00 0.00 46 1009.6
20260504233543 71 121 0.0 3.5 0.00 0.00 0.00 44 1009.5
20260504233051 71 0 0.0 3.5 0.00 0.00 0.00 43 1009.3
20260504232543 72 80 1.7 3.5 0.00 0.00 0.00 41 1009.2
20260504232040 72 95 0.0 3.5 0.00 0.00 0.00 33 1009.2
20260504231544 72 0 0.9 3.5 0.00 0.00 0.00 33 1009.0
20260504231040 72 323 0.9 3.5 0.00 0.00 0.00 33 1009.0
20260504230544 72 250 0.9 3.5 0.00 0.00 0.00 33 1008.9
20260504230110 73 232 0.9 3.5 0.00 0.00 0.00 33 1008.9
20260504225543 73 276 0.9 3.5 0.00 0.00 0.00 33 1008.8
20260504225044 73 259 0.9 3.5 0.00 0.00 0.00 33 1008.8
20260504224601 73 189 0.9 6.1 0.00 0.00 0.00 32 1008.9
20260504224040 73 263 0.9 6.1 0.00 0.00 0.00 32 1009.1
20260504223540 73 259 1.7 6.1 0.00 0.00 0.00 32 1009.0
20260504223052 73 262 0.9 3.5 0.00 0.00 0.00 32 1008.9
20260504222540 73 229 0.9 3.5 0.00 0.00 0.00 32 1008.9
20260504222040 73 0 0.9 5.2 0.00 0.00 0.00 32 1008.8
20260504221550 73 253 1.7 5.2 0.00 0.00 0.00 31 1008.9
20260504221043 73 96 0.0 2.6 0.00 0.00 0.00 32 1008.9
20260504220541 73 208 0.9 4.3 0.00 0.00 0.00 32 1009.1
20260504220057 73 257 1.7 4.3 0.00 0.00 0.00 31 1009.1
20260504215542 74 257 0.9 5.2 0.00 0.00 0.00 31 1009.1
20260504215043 74 244 0.9 5.2 0.00 0.00 0.00 31 1009.1
20260504214552 74 230 0.9 6.1 0.00 0.00 0.00 31 1009.2
20260504214040 74 275 0.9 6.1 0.00 0.00 0.00 31 1009.2
20260504213540 74 262 0.9 5.2 0.00 0.00 0.00 31 1009.3
20260504213056 74 242 1.7 5.2 0.00 0.00 0.00 30 1009.3
20260504212541 74 295 1.7 6.1 0.00 0.00 0.00 31 1009.4